When you browse on this site, cookies collect data to enhance your experience and personalize the content and advertising you see.
Visit our Privacy Policy to learn more. By continuing to use the site, you agree to this use of cookies and data.
  • In France
  • List of Countries
  • For 7 days
  • Water Temperature
  • Weather Map
  • Weather Widgets
  • user-avatar
    Login

    Hourly Weather Whitehorse

    Today, 10 April, Friday

    Time Temperature Precipitation Wind Pressure Humidity
    00:00 -12°C° 0 mm 1 mps 695 mmHg 86%
    01:00 -12°C° 0 mm 1 mps 696 mmHg 87%
    02:00 -13°C° 0 mm 1 mps 696 mmHg 87%
    03:00 -13°C° 0 mm 1 mps 697 mmHg 88%
    04:00 -13°C° 0 mm 1 mps 697 mmHg 87%
    05:00 -13°C° 0 mm 1 mps 697 mmHg 87%
    06:00 -12°C° 0 mm 1 mps 698 mmHg 86%
    07:00 -10°C° 0 mm 1 mps 698 mmHg 81%
    08:00 -8°C° 0 mm 1 mps 698 mmHg 76%
    09:00 -6°C° 0 mm 1 mps 698 mmHg 72%
    10:00 -4°C° 0 mm 1 mps 698 mmHg 68%
    11:00 -3°C° 0 mm 1 mps 698 mmHg 65%
    12:00 -3°C° 0 mm 0 mps 698 mmHg 61%
    13:00 -2°C° 0 mm 0 mps 698 mmHg 60%
    14:00 -2°C° 0 mm 0 mps 698 mmHg 58%
    15:00 -1°C° 0 mm 0 mps 697 mmHg 57%
    16:00 -2°C° 0 mm 0 mps 697 mmHg 61%
    17:00 -3°C° 0 mm 0 mps 696 mmHg 64%
    18:00 -4°C° 0 mm 0 mps 696 mmHg 68%
    19:00 -6°C° 0 mm 1 mps 696 mmHg 68%
    20:00 -7°C° 0 mm 1 mps 696 mmHg 69%
    21:00 -9°C° 0 mm 1 mps 696 mmHg 69%
    22:00 -9°C° 0 mm 1 mps 696 mmHg 69%
    23:00 -9°C° 0 mm 1 mps 696 mmHg 68%

    Tomorrow, 11 April, Saturday

    Time Temperature Precipitation Wind Pressure Humidity
    00:00 -9°C° 0 mm 0 mps 696 mmHg 68%
    01:00 -9°C° 0 mm 0 mps 696 mmHg 68%
    02:00 -10°C° 0 mm 0 mps 696 mmHg 68%
    03:00 -10°C° 0 mm 0 mps 696 mmHg 68%
    04:00 -10°C° 0 mm 0 mps 696 mmHg 69%
    05:00 -10°C° 0 mm 0 mps 697 mmHg 69%
    06:00 -10°C° 0 mm 0 mps 697 mmHg 70%
    07:00 -8°C° 0 mm 1 mps 697 mmHg 68%
    08:00 -4°C° 0 mm 1 mps 697 mmHg 67%
    09:00 -2°C° 0 mm 1 mps 697 mmHg 65%
    10:00 -1°C° 0 mm 1 mps 697 mmHg 66%
    11:00 0°C° 0 mm 1 mps 697 mmHg 67%
    12:00 +1°C° 0 mm 1 mps 697 mmHg 69%
    13:00 +1°C° 0 mm 1 mps 697 mmHg 69%
    14:00 +2°C° 0 mm 1 mps 696 mmHg 69%
    15:00 +2°C° 0 mm 1 mps 696 mmHg 69%
    16:00 0°C° 0 mm 0 mps 696 mmHg 72%
    17:00 0°C° 0 mm 0 mps 695 mmHg 75%
    18:00 -1°C° 0 mm 0 mps 695 mmHg 79%
    19:00 -3°C° 0 mm 0 mps 695 mmHg 80%
    20:00 -4°C° 0 mm 0 mps 694 mmHg 81%
    21:00 -6°C° 0 mm 1 mps 694 mmHg 83%
    22:00 -6°C° 0 mm 1 mps 694 mmHg 83%
    23:00 -6°C° 0 mm 1 mps 694 mmHg 83%

    Day after tomorrow, 12 April, Sunday

    Time Temperature Precipitation Wind Pressure Humidity
    00:00 -7°C° 0 mm 1 mps 694 mmHg 82%
    01:00 -7°C° 0 mm 1 mps 694 mmHg 82%
    02:00 -7°C° 0 mm 1 mps 694 mmHg 82%
    03:00 -7°C° 0 mm 1 mps 693 mmHg 82%
    04:00 -7°C° 0 mm 1 mps 693 mmHg 81%
    05:00 -7°C° 0 mm 1 mps 693 mmHg 80%
    06:00 -7°C° 0 mm 1 mps 693 mmHg 79%
    07:00 -4°C° 0 mm 1 mps 693 mmHg 76%
    08:00 -4°C° 0 mm 2 mps 693 mmHg 73%
    09:00 -2°C° 0 mm 2 mps 693 mmHg 70%
    10:00 -1°C° 0 mm 2 mps 693 mmHg 69%
    11:00 +1°C° 0 mm 2 mps 693 mmHg 68%
    12:00 +1°C° 0 mm 2 mps 692 mmHg 66%
    13:00 +2°C° 0 mm 2 mps 692 mmHg 66%
    14:00 +2°C° 0 mm 2 mps 692 mmHg 65%
    15:00 +3°C° 0 mm 2 mps 692 mmHg 65%
    16:00 +2°C° 0 mm 2 mps 692 mmHg 68%
    17:00 +3°C° 0 mm 1 mps 692 mmHg 71%
    18:00 +2°C° 0 mm 1 mps 691 mmHg 74%
    19:00 +1°C° 0 mm 1 mps 691 mmHg 75%
    20:00 -1°C° 0 mm 1 mps 691 mmHg 75%
    21:00 -2°C° 0 mm 1 mps 691 mmHg 76%
    22:00 -2°C° 0 mm 1 mps 691 mmHg 74%
    23:00 -3°C° 0 mm 1 mps 691 mmHg 73%

    13 April, Monday

    Time Temperature Precipitation Wind Pressure Humidity
    00:00 -3°C° 0 mm 1 mps 691 mmHg 71%
    01:00 -3°C° 0 mm 1 mps 691 mmHg 70%
    02:00 -3°C° 0 mm 1 mps 691 mmHg 69%
    03:00 -3°C° 0 mm 1 mps 691 mmHg 68%
    04:00 -3°C° 0 mm 1 mps 691 mmHg 67%
    05:00 -3°C° 0 mm 1 mps 691 mmHg 67%
    06:00 -3°C° 0 mm 1 mps 692 mmHg 67%
    07:00 -2°C° 0 mm 1 mps 692 mmHg 65%
    08:00 0°C° 0 mm 1 mps 692 mmHg 62%
    09:00 +2°C° 0 mm 1 mps 692 mmHg 60%
    10:00 +1°C° 0 mm 2 mps 692 mmHg 61%
    11:00 +2°C° 0 mm 2 mps 692 mmHg 62%
    12:00 +3°C° 0 mm 2 mps 692 mmHg 63%
    13:00 +4°C° 0 mm 2 mps 692 mmHg 65%
    14:00 +4°C° 0 mm 2 mps 691 mmHg 67%
    15:00 +4°C° 0 mm 2 mps 691 mmHg 68%
    16:00 +4°C° 0 mm 2 mps 691 mmHg 72%
    17:00 +3°C° 0 mm 2 mps 690 mmHg 76%
    18:00 +2°C° 0 mm 2 mps 690 mmHg 80%
    19:00 +1°C° 0 mm 2 mps 690 mmHg 83%
    20:00 -1°C° 0 mm 2 mps 690 mmHg 85%
    21:00 -2°C° 0 mm 2 mps 690 mmHg 87%
    22:00 -2°C° 0 mm 2 mps 689 mmHg 88%
    23:00 -2°C° 0 mm 2 mps 689 mmHg 89%

    14 April, Tuesday

    Time Temperature Precipitation Wind Pressure Humidity
    00:00 -2°C° 0 mm 2 mps 689 mmHg 90%
    01:00 -2°C° 0 mm 2 mps 689 mmHg 91%
    02:00 -2°C° 0 mm 2 mps 689 mmHg 92%
    03:00 -2°C° 0 mm 2 mps 689 mmHg 92%
    04:00 -2°C° 0 mm 2 mps 689 mmHg 91%
    05:00 -2°C° 0 mm 2 mps 689 mmHg 91%
    06:00 0°C° 0 mm 1 mps 690 mmHg 90%
    07:00 +1°C° 0 mm 1 mps 690 mmHg 87%
    08:00 +3°C° 0 mm 1 mps 691 mmHg 84%
    09:00 +4°C° 0 mm 1 mps 691 mmHg 81%
    10:00 +5°C° 0 mm 1 mps 691 mmHg 79%
    11:00 +6°C° 0 mm 1 mps 692 mmHg 77%
    12:00 +7°C° 0 mm 1 mps 692 mmHg 76%
    13:00 +7°C° 0 mm 1 mps 692 mmHg 78%
    14:00 +6°C° 0 mm 2 mps 692 mmHg 80%
    15:00 +6°C° 0 mm 2 mps 692 mmHg 82%
    16:00 +5°C° 0 mm 2 mps 692 mmHg 84%
    17:00 +5°C° 0 mm 2 mps 692 mmHg 87%
    18:00 +4°C° 0 mm 2 mps 691 mmHg 90%
    19:00 +3°C° 0 mm 2 mps 691 mmHg 91%
    20:00 +2°C° 0 mm 2 mps 691 mmHg 91%
    21:00 +1°C° 0 mm 2 mps 691 mmHg 92%
    22:00 +1°C° 0 mm 2 mps 691 mmHg 92%
    23:00 +1°C° 0 mm 2 mps 691 mmHg 92%

    15 April, Wednesday

    Time Temperature Precipitation Wind Pressure Humidity
    00:00 -1°C° 0 mm 2 mps 691 mmHg 92%
    01:00 -1°C° 0 mm 2 mps 691 mmHg 91%
    02:00 -1°C° 0 mm 2 mps 691 mmHg 91%
    03:00 -1°C° 0 mm 2 mps 691 mmHg 91%
    04:00 +1°C° 0 mm 1 mps 691 mmHg 90%
    05:00 +1°C° 0 mm 1 mps 691 mmHg 90%
    06:00 +2°C° 0 mm 1 mps 691 mmHg 90%
    07:00 +3°C° 0 mm 1 mps 691 mmHg 86%
    08:00 +4°C° 0 mm 1 mps 692 mmHg 83%
    09:00 +6°C° 0 mm 1 mps 692 mmHg 79%
    10:00 +6°C° 0 mm 1 mps 692 mmHg 78%
    11:00 +7°C° 0 mm 1 mps 692 mmHg 76%
    12:00 +8°C° 0 mm 1 mps 692 mmHg 74%
    13:00 +8°C° 0 mm 1 mps 692 mmHg 76%
    14:00 +8°C° 0 mm 1 mps 692 mmHg 77%
    15:00 +8°C° 0 mm 1 mps 692 mmHg 79%
    16:00 +7°C° 0 mm 1 mps 692 mmHg 82%
    17:00 +6°C° 0 mm 1 mps 691 mmHg 86%
    18:00 +5°C° 0 mm 1 mps 691 mmHg 89%
    19:00 +5°C° 0 mm 1 mps 691 mmHg 90%
    20:00 +4°C° 0 mm 1 mps 691 mmHg 90%
    21:00 +3°C° 0 mm 1 mps 691 mmHg 91%
    22:00 +3°C° 0 mm 1 mps 690 mmHg 91%
    23:00 +3°C° 0 mm 1 mps 690 mmHg 91%
    Show more